Погода в Лениногорске

Погода в Лениногорске : погода сейчас, прогноз погоды и архив. Всё, что Вы хотите узнать о погоде в Лениногорске!

Поиск расширенной информации на нашем сайте:

Другие новости

Новости СМИ2

Главная страница сайта

Новости сайта

03.07.2017

Напоминаем, что на нашем специализированном сайте Метеоцентр.Азия вы можете получить высокодетализированные автоматические прогнозы погоды по пунктам России, СНГ и мира в авиационном формате (включающие направление и скорость ветра, видимость, явления погоды, количество и форму облачности, нижнюю и верхнюю границу облачности).


Погода в Лениногорске - сегодня

Время (UTC), дата Ветер
(°,м/с) 
Видим.   Явления Облачность Т
(°С)
Тd
(°С)
f(%) Тe
(°С)
Pmin
(гПа)
dP
(гПа)
Po
(мм)
O2
(г/м3)
Тmin Tmax R s Состояние
почвы
18 14.10.17 140 (ЮВ) н/о    ясно 
-1.1 -5.5 72 -2  1024.9  -0.3  695  282    +15       
21 14.10.17 160 (Ю) н/о    ясно 
-0.2 -5.7 66 -3  1023.6  -0.9  695  281           
00 15.10.17 160 (Ю) н/о    ясно 
+0.6 -4.5 69 1023.1  -0.2  694  280           
03 15.10.17 110 (В) 20000 м    8/0 верхняя 
[Ci fib]
+5.6 -1.7 59 +5  1021.4  0.1  695  274           
06 15.10.17 160 (Ю) 20000 м    9/0 средняя, верхняя 
[Ac trans|Ci fib]
+15.4 +2.5 42 +15  1017.1  -0.8  694  264  -1.4         
09 15.10.17 240 (ЮЗ) 20000 м    9/4 1000 м кучево-дожд., средняя, верхняя 
[Cb calv|Ac trans|Ci fib]
+14.6 +4.2 50 +14  1017.3  694  265           
12 15.10.17 230 (ЮЗ) 20000 м    9/6 1000 м кучево-дожд., средняя, верхняя 
[Cb calv|Ac trans|Ci fib]
+14.2 +6.6 60 +14  1017.4  0.1  694  265           
15 15.10.17 270 (З) 10  н/о    9/0 средняя, верхняя 
[Ac trans|Ci fib]
+12 +3.8 57 +10  1018.1  -0.1  694  267    +16.2       
18 15.10.17 290 (З) 10  н/о    9/0 средняя, верхняя 
[Ac trans|Ci fib]
+9.2 -0.5 51 +7  1019.3  0.1  694  270    +16.2       
21 15.10.17 270 (З) н/о  {ливн. осадки}  9/9 600 м кучево-дожд. 
[Cb calv]
+9.8 +5.1 73 +9  1018.9  694  269           
00 16.10.17 250 (З) н/о  {снег}  9/3 1000 м кучево-дожд., средняя, верхняя 
[Cb calv|Ac trans|Ci fib]
+10.3 +5.2 71 +9  1018.5  -0.3  694  268           
03 16.10.17 тихо ()   20000 м    9/8 1000 м средняя, верхняя 
[Sc|Ac trans|Ci fib]
+7.9 +4.9 81 +8  1020.4  695  271         
06 16.10.17 230 (ЮЗ) 20000 м    8/8 1000 м 
[Sc]
+14.2 +4.9 53 +14  1017.5  -0.7  694  265  +7.6       
09 16.10.17 230 (ЮЗ) 20000 м    6/6 1000 м 
[Sc]
+15.1 +4.3 48 +15  1016.4  -0.7  693  264           
12 16.10.17 тихо ()   20000 м    9/4 1000 м верхняя 
[Sc|Ci fib]
+11.2 +4.1 62 +11  1018.6  0.8  694  268           
15 16.10.17 090 (В) н/о    ясно 
+3.8 -1.2 70 +3  1022.7  1.3  695  276    +16       
18 16.10.17 090 (В) н/о    ясно 
+0.8 -3.2 75 1024.3  0.4  695  280    +16       
21 16.10.17 090 (В) н/о    ясно 
+0.4 -3.4 76 1024.2  -0.3  695  280           
00 17.10.17 тихо ()   н/о    ясно 
-1 -4.4 78 -1  1025  0.3  695  282           
03 17.10.17 тихо ()   20000 м    8/0 верхняя 
[Ci fib]
+3.6 -2.7 63 +4  1023.4  0.1  695  277           
06 17.10.17 тихо ()   20000 м    8/0 верхняя 
[Ci fib]
+13.2 +3.6 52 +13  1018.9  -0.9  695  266  -1.3         
09 17.10.17 250 (З) 20000 м    9/0 средняя, верхняя 
[Ac lent|Ci fib]
+16.2 +4.5 46 +17  1016.4  -1.4  694  263           
12 17.10.17 270 (З) 20000 м    9/8 1000 м средняя, верхняя 
[Sc|Ac trans|Ci fib]
+12 +5.1 63 +12  1017.9  0.1  694  267           
15 17.10.17 270 (З) н/о    9/8 1000 м средняя, верхняя 
[Sc|Ac trans|Ci fib]
+7.2 +2.3 71 +7  1019.5  -0.1  694  272    +17       
18 17.10.17 290 (З) н/о    9/9 1000 м 
[Sc]
+6.8 +2.4 73 +7  1018.3  -1.2  693  272    +17       
Время (UTC), дата Ветер
(°,м/с) 
Видим.   Явления Облачность Т
(°С)
Тd
(°С)
f(%) Тe
(°С)
Pmin
(гПа)
dP
(гПа)
Po
(мм)
O2
(г/м3)
Тmin Tmax R s Состояние
почвы

Для получения пояснительной информации подведите курсор к названию столбца.

ПОГОДА в Лениногорске - архив

Всё, что Вы хотите узнать о погоде в Лениногорске - удобно и подробно!

Выберите нужную дату (начиная с 1 января 2015* года) и нажмите кнопку "Найти".
Будут отображены архивные сводки погоды по пункту Лениногорск, начиная с указанной даты.


Отображать данные в формате CSV (для использования в таблицах Excel)


Внимание! Наш архив погоды предназначен исключительно для личного некоммерческого использования в познавательных целях. Если Вам необходимы официальные справки о состоянии погоды (для производственных, юридических, коммерческих и т.п. целей), обращайтесь в органы Росгидромета.

*Примечание: данная дата относится к архиву по метеостанциям СССР (Россия, СНГ, Балтия).
Архив по метеостанциям Зарубежной Европы и Азии (кроме Китая) хранится 10 дней, по другим регионам земного шара (Китай, Африка, Америка, Австралия, Океания) - 1 день.

Лениногорск - район местоположения метеостанции


Название, широта, долгота, высота метеостанции:
Лениногорск 50.3°ш. 83.6°д. 811 м над ур. моря [Казахстан]

Дополнительная информация

В oтличие oт бoльшинства пoгoдных сайтoв мы публикуем пoдрoбную метеoинфoрмацию в детальнoм прoфессиoнальнoм фoрмате.

Характеристики температуры и влажнoсти вoздуха измеряются на высoте 2 м в тени вдали oт зданий и деревьев.
Скoрoсть ветра измеряется на высoте 10 м (на урoвне рoста челoвека скoрoсть ветра ниже в 1.5-2 раза). Если метеoстанция нахoдится в гoрoде или в лесу, тo скoрoсть ветра занижена на 2-4 м/с пo сравнению с oткрытым местoм. Скoрoсть ветра над акватoриями крупных рек и oзёр, а также на вершинах хoлмoв на 2-5 м/с выше, чем в oбычных услoвиях.
Атмoсфернoе давление в разных тoчках местнoсти мoжет значительнo oтличаться oт давления на метеoстанции, в зависимoсти oт услoвий рельефа (при пoдъёме на 10 м давление пoнижается примернo на 1 мм рт.ст.).